Wind_Speed
12 5 3 7 12 11 13 9 5 9 10 12 14 14 15 13 7 8 13 15 15 17 15 13 21 23 26 24 17 14 13 15 12 5 5 3 5 6 11 10 9 9 11
11 8 1 1 7 10 6 10 7 12 12 11 12 13 13 8 5 6 10 14 16 17 21 24 23 26 27 25 25 21 16 12 8 7 3 5 7 7 10 6 7 6 11
10 8 2 4 2 4 8 5 5 9 11 12 14 14 12 10 11 9 14 22 22 24 23 21 24 23 24 20 17 16 13 9 8 3 3 4 6 8 10 10 8 7 6
10 7 5 2 3 4 5 5 5 10 8 9 14 14 12 13 11 6 22 29 24 25 23 19 20 22 20 16 11 11 9 6 4 5 4 6 8 7 9 9 7 6 6
10 6 7 0 4 6 7 6 9 12 6 14 14 19 18 12 9 13 23 26 23 24 23 20 16 20 18 12 9 3 7 2 2 1 4 10 12 11 8 7 8 7 8
9 7 5 2 6 7 12 15 16 13 16 18 16 13 13 11 16 18 21 20 19 20 19 19 17 9 12 10 6 4 4 1 5 5 8 12 13 11 9 9 8 8 9
9 8 6 3 5 7 17 18 16 16 16 17 17 13 12 13 18 16 17 16 19 19 14 14 17 13 10 9 5 6 3 2 7 8 10 12 11 8 8 7 7 8 9
12 9 9 5 7 12 12 17 22 20 17 14 16 14 13 13 12 11 13 16 15 12 13 15 17 12 11 8 8 6 7 6 9 12 10 10 9 10 10 11 11 11 11
14 11 12 9 10 12 14 15 14 16 18 14 10 12 13 13 12 14 14 13 13 12 15 12 8 12 9 7 7 9 10 8 11 8 7 7 8 8 9 10 11 12 12
16 14 15 15 14 14 16 18 15 13 14 15 17 10 8 6 13 13 12 12 14 17 10 13 13 8 9 8 9 9 9 9 7 6 5 6 7 8 9 11 12 14 16
21 19 17 19 17 17 16 17 18 18 14 14 13 13 13 13 11 13 15 12 13 16 13 14 11 8 10 9 8 8 5 4 3 3 3 5 7 9 13 16 17 17 18
24 22 20 21 21 21 20 19 17 17 17 14 14 12 14 14 17 19 16 16 16 14 15 14 15 12 11 9 7 5 4 3 3 3 5 7 11 14 14 14 14 14 15
26 25 23 24 24 24 25 21 20 20 18 18 17 19 19 16 13 13 10 9 15 14 10 7 7 7 6 6 7 7 5 5 6 7 10 13 13 13 12 12 12 12 15
28 28 26 26 26 28 26 25 23 22 21 19 16 20 18 15 16 16 15 9 12 8 7 7 8 9 9 8 6 6 6 8 11 12 13 13 11 10 9 9 12 15 17
31 30 29 28 29 31 28 26 27 22 20 20 22 21 19 15 15 15 15 14 13 11 10 9 9 8 8 8 7 7 9 12 12 11 10 9 7 6 7 10 13 16 17
33 33 32 30 31 32 31 29 28 26 23 22 23 24 23 22 20 18 16 14 13 12 12 11 9 8 8 8 10 11 11 11 10 10 7 5 4 7 10 13 14 15 18
34 34 33 32 32 33 32 30 27 24 21 24 25 25 24 22 20 19 16 14 12 11 9 9 10 10 10 11 10 10 10 10 9 6 4 3 5 7 10 12 14 17 18
34 35 33 32 32 33 33 30 27 25 23 25 25 25 25 24 24 22 18 14 10 10 10 11 11 10 11 11 10 10 10 9 7 6 5 5 6 9 10 11 14 16 17
32 36 35 34 33 33 33 32 30 29 29 28 27 27 27 27 25 22 16 12 12 11 11 12 12 12 11 11 10 10 10 9 8 8 6 6 8 10 10 11 15 16 16
32 36 36 36 35 35 34 33 32 32 31 30 29 29 29 27 25 19 17 15 13 11 12 13 14 13 12 12 12 12 11 11 10 9 6 7 8 10 10 12 14 15 16
36 38 39 38 38 36 35 34 33 33 32 32 32 32 30 28 25 22 21 18 16 15 13 15 16 15 15 15 14 13 13 12 11 9 8 8 9 11 10 11 14 16 17
38 40 40 38 38 38 38 37 36 33 35 36 35 35 35 33 32 28 25 22 21 20 17 16 19 19 19 17 16 15 15 14 12 10 10 9 11 12 11 12 14 16 17
39 41 40 40 38 39 40 39 38 37 38 38 37 36 34 34 34 31 28 25 23 23 24 22 22 20 20 18 18 18 16 15 13 12 11 11 12 13 12 13 15 17 18
41 42 40 39 39 39 39 39 40 40 40 40 39 37 35 35 35 33 31 29 26 26 28 29 25 21 20 20 20 20 19 18 16 13 12 12 13 13 14 15 17 18 19
42 40 39 39 38 38 39 39 39 39 40 40 39 38 36 36 35 33 32 31 30 30 32 27 27 22 22 22 22 22 20 19 17 14 12 14 14 15 15 17 18 19 20
44 44 44 43 42 41 40 39 38 39 38 37 38 38 38 38 37 34 33 33 33 33 34 29 30 25 24 24 22 22 21 20 18 15 14 16 17 17 18 19 19 20 22
Wind_Direction
349 347 64 68 71 51 63 66 95 119 126 138 146 147 147 139 96 76 132 141 146 142 162 162 151 143 138 137 143 155 153 163 158 141 136 230 298 310 319 322 315 269 278
350 314 110 267 97 77 82 81 100 111 122 139 147 148 141 130 113 94 139 133 133 142 132 139 135 144 141 145 146 150 131 119 140 145 91 38 3 342 340 295 303 315 258
342 312 315 261 115 100 107 111 129 119 129 143 151 156 155 132 102 114 134 133 134 137 131 127 144 149 153 155 151 145 144 154 152 126 82 338 358 334 344 340 336 337 320
326 316 307 211 207 194 160 136 174 151 125 157 144 149 141 120 118 104 153 140 137 134 136 147 152 147 152 153 158 155 151 164 165 99 47 343 327 322 328 332 332 323 300
312 303 298 275 189 182 170 114 161 156 118 142 156 140 125 112 121 116 148 155 156 148 137 135 156 161 159 144 122 163 219 112 244 186 43 339 344 338 329 325 325 315 301
297 283 283 192 155 173 157 124 144 139 132 130 139 133 121 133 131 126 132 143 153 162 154 145 162 167 152 161 178 151 183 132 219 294 325 323 328 327 323 322 321 321 316
279 271 256 253 147 168 162 149 139 142 136 134 129 125 134 150 143 137 145 148 150 157 168 181 170 170 185 188 190 221 211 255 272 284 300 315 317 317 320 316 313 310 313
264 261 238 212 176 154 158 154 155 151 143 137 143 144 140 150 150 155 163 161 165 181 193 184 177 188 198 178 164 218 281 321 296 307 293 296 314 326 337 340 339 339 337
254 247 233 211 185 178 164 156 154 155 159 152 157 153 146 144 151 156 164 168 168 163 158 151 194 201 167 210 214 246 294 287 302 304 320 332 339 347 345 344 345 345 338
244 238 231 214 199 198 189 172 169 172 166 169 162 171 166 149 164 151 155 152 159 164 153 166 163 195 194 221 236 249 279 311 323 328 338 349 347 347 342 341 336 331 327
237 234 225 219 207 204 208 182 164 172 178 191 179 190 176 160 175 162 166 169 167 172 188 196 207 205 212 239 251 273 273 280 293 326 336 328 329 330 330 327 326 327 327
236 231 225 217 212 210 205 198 180 182 186 188 191 197 193 193 186 187 194 173 170 192 200 198 209 217 233 241 238 231 232 237 255 287 300 307 318 325 332 335 337 334 333
234 229 225 216 211 210 214 196 196 196 196 208 206 191 187 193 198 190 199 176 199 204 186 211 208 212 216 215 217 223 234 258 276 293 307 318 326 328 329 331 333 338 339
231 225 224 221 213 211 214 207 207 212 210 210 195 188 192 194 198 205 222 207 206 208 209 208 205 208 214 220 230 246 268 288 302 310 318 318 316 321 330 337 341 340 339
226 221 221 220 214 214 216 204 209 214 209 200 195 196 198 201 198 198 197 197 198 198 199 204 210 219 229 240 256 275 288 298 305 306 304 301 306 323 339 342 342 340 341
223 218 219 218 218 215 217 217 218 214 207 200 201 195 197 196 191 191 189 190 195 204 210 217 228 242 261 275 281 283 289 291 288 285 284 297 319 339 341 341 341 341 341
222 218 220 218 219 217 219 222 225 220 211 206 204 204 198 193 193 188 190 202 215 227 244 252 253 257 263 267 276 280 275 272 266 259 267 297 322 324 333 340 344 341 340
220 219 218 220 221 219 219 222 224 223 216 214 210 206 202 193 190 194 204 215 222 237 243 249 251 255 263 267 266 262 261 259 252 245 255 277 307 330 336 341 339 340 343
223 221 218 216 218 220 218 220 220 219 215 212 206 203 201 199 201 201 208 215 228 239 245 246 245 253 258 263 260 260 256 247 238 242 250 291 319 326 327 334 336 338 339
225 222 223 218 215 216 215 217 216 215 213 209 204 201 205 208 206 210 210 216 225 236 243 247 245 252 259 260 255 248 238 230 232 239 263 294 308 312 317 329 333 335 335
227 220 221 220 216 214 214 215 213 214 212 208 204 205 207 207 210 215 218 224 233 240 255 256 248 248 259 254 245 239 230 229 236 246 272 288 300 300 310 324 327 329 330
223 217 219 220 218 215 212 212 213 208 215 212 210 209 210 210 211 216 221 230 240 248 261 274 256 255 259 248 244 236 226 231 236 250 268 285 291 291 303 315 318 321 324
215 211 215 217 217 217 215 213 212 210 213 216 215 216 216 217 218 222 228 233 243 252 257 275 264 258 251 243 242 234 231 232 240 252 268 281 282 287 298 306 311 317 322
207 209 213 216 217 217 218 217 214 212 213 214 218 217 218 221 224 227 232 236 242 250 258 270 262 253 248 243 239 233 233 235 239 250 263 274 277 284 292 299 305 313 318
207 209 213 215 216 217 218 219 219 218 218 218 221 221 221 226 229 232 235 240 243 248 258 273 257 249 244 239 235 233 234 236 240 249 263 273 278 282 287 294 301 309 315
206 208 210 213 216 218 219 220 221 223 224 224 226 227 227 226 228 231 236 242 246 251 260 272 255 250 240 235 234 234 235 236 243 253 265 273 277 280 284 290 299 307 310
Height
3041 3039 3038 3035 3034 3033 3032 3030 3028 3027 3027 3028 3030 3032 3035 3038 3040 3040 3042 3044 3046 3050 3053 3057 3061 3065 3069 3074 3078 3082 3087 3091 3093 3095 3098 3101 3102 3101 3100 3098 3099 3099 3099
3040 3038 3038 3035 3036 3035 3034 3034 3032 3031 3031 3032 3034 3036 3039 3040 3042 3043 3045 3047 3049 3052 3056 3060 3065 3068 3073 3077 3081 3084 3088 3091 3094 3097 3099 3100 3100 3100 3100 3099 3097 3096 3097
3040 3038 3038 3036 3036 3036 3037 3035 3035 3035 3033 3035 3036 3038 3041 3044 3045 3046 3047 3051 3054 3057 3061 3065 3068 3072 3076 3080 3083 3086 3090 3092 3094 3097 3098 3099 3099 3099 3098 3097 3096 3096 3095
3039 3038 3037 3037 3036 3036 3036 3037 3036 3036 3037 3038 3040 3042 3044 3045 3046 3047 3050 3055 3058 3062 3065 3069 3073 3076 3079 3082 3085 3088 3091 3093 3094 3096 3098 3099 3098 3098 3097 3096 3095 3094 3095
3039 3037 3036 3035 3036 3037 3035 3037 3037 3038 3038 3039 3042 3045 3047 3048 3049 3050 3052 3057 3061 3065 3068 3072 3075 3079 3081 3084 3086 3089 3091 3093 3095 3095 3095 3096 3096 3095 3094 3094 3094 3093 3093
3038 3037 3036 3035 3035 3037 3037 3037 3040 3040 3041 3043 3047 3048 3050 3052 3054 3054 3056 3060 3063 3067 3071 3074 3078 3080 3083 3086 3088 3090 3092 3093 3094 3094 3095 3095 3095 3094 3094 3093 3093 3092 3092
3036 3037 3036 3035 3035 3038 3039 3039 3040 3043 3045 3046 3049 3052 3054 3056 3057 3059 3061 3064 3067 3070 3073 3076 3078 3082 3084 3087 3089 3090 3092 3093 3094 3095 3094 3093 3093 3092 3091 3091 3091 3091 3091
3034 3035 3036 3036 3037 3038 3040 3041 3042 3044 3047 3049 3050 3053 3055 3057 3059 3061 3063 3066 3068 3071 3073 3076 3079 3082 3085 3086 3088 3090 3091 3092 3092 3092 3092 3091 3091 3091 3090 3091 3091 3091 3089
3033 3033 3035 3036 3037 3039 3040 3042 3043 3045 3047 3050 3052 3055 3056 3057 3059 3061 3064 3066 3069 3071 3074 3076 3079 3081 3084 3086 3088 3089 3089 3090 3089 3089 3090 3090 3090 3089 3089 3089 3088 3087 3086
3030 3031 3032 3034 3036 3038 3040 3040 3043 3046 3048 3050 3052 3056 3057 3059 3061 3062 3064 3067 3069 3071 3074 3077 3079 3081 3083 3085 3086 3087 3088 3088 3088 3088 3087 3087 3087 3087 3087 3086 3085 3084 3083
3026 3028 3029 3032 3034 3037 3038 3039 3042 3045 3048 3050 3052 3054 3057 3059 3060 3063 3066 3068 3070 3072 3074 3076 3077 3079 3081 3083 3084 3085 3085 3085 3085 3085 3084 3085 3085 3085 3084 3084 3082 3080 3077
3021 3024 3026 3029 3031 3034 3036 3038 3041 3044 3046 3049 3051 3052 3056 3058 3061 3063 3065 3067 3069 3071 3073 3075 3076 3077 3079 3081 3082 3082 3082 3082 3082 3082 3083 3083 3083 3081 3080 3079 3077 3076 3074
3017 3020 3022 3025 3029 3031 3034 3036 3038 3042 3044 3046 3049 3051 3054 3057 3059 3062 3063 3066 3068 3070 3071 3073 3075 3076 3078 3079 3079 3080 3081 3081 3081 3081 3080 3080 3079 3079 3078 3078 3076 3074 3074
3011 3014 3017 3020 3024 3027 3030 3033 3036 3038 3041 3044 3047 3050 3052 3055 3058 3061 3063 3065 3067 3068 3070 3072 3073 3075 3076 3077 3079 3079 3080 3080 3079 3078 3078 3078 3078 3078 3077 3076 3075 3074 3072
3004 3008 3012 3016 3019 3023 3026 3030 3033 3035 3038 3040 3044 3047 3051 3054 3056 3059 3061 3064 3066 3068 3069 3070 3072 3073 3075 3076 3076 3076 3076 3076 3076 3076 3077 3077 3077 3076 3075 3074 3072 3070 3068
2997 3001 3005 3009 3014 3017 3021 3024 3027 3030 3034 3037 3041 3043 3046 3049 3052 3056 3059 3062 3063 3065 3066 3068 3070 3071 3072 3073 3073 3073 3073 3074 3074 3075 3075 3075 3075 3074 3073 3071 3069 3066 3064
2990 2995 2999 3003 3008 3012 3015 3019 3023 3028 3031 3034 3038 3041 3043 3047 3051 3054 3057 3059 3061 3063 3065 3066 3067 3068 3069 3069 3070 3071 3072 3072 3072 3072 3073 3073 3073 3072 3071 3068 3066 3065 3062
2983 2988 2993 2998 3003 3007 3011 3015 3020 3023 3028 3032 3035 3038 3042 3045 3048 3051 3054 3056 3059 3061 3062 3064 3065 3065 3066 3068 3068 3069 3069 3069 3070 3071 3071 3071 3071 3070 3069 3067 3065 3062 3061
2976 2982 2986 2991 2996 3002 3006 3010 3013 3017 3021 3026 3030 3035 3039 3042 3045 3047 3051 3054 3056 3058 3059 3061 3062 3062 3063 3064 3065 3065 3066 3067 3068 3069 3068 3068 3067 3067 3066 3065 3063 3061 3058
2968 2974 2980 2984 2989 2994 2998 3003 3007 3011 3016 3021 3025 3029 3034 3039 3042 3045 3048 3050 3052 3054 3055 3056 3057 3058 3059 3060 3061 3062 3063 3064 3064 3064 3064 3064 3064 3063 3061 3061 3060 3058 3055
2960 2965 2971 2976 2981 2986 2991 2995 3000 3006 3011 3016 3020 3024 3030 3034 3038 3041 3043 3046 3048 3049 3050 3051 3052 3054 3055 3056 3056 3057 3058 3059 3060 3061 3061 3061 3060 3060 3059 3058 3057 3055 3052
2949 2956 2962 2968 2973 2978 2983 2988 2994 2998 3006 3011 3014 3018 3022 3027 3030 3034 3038 3041 3043 3045 3046 3047 3048 3049 3050 3051 3051 3052 3053 3054 3056 3057 3057 3056 3056 3056 3055 3054 3053 3052 3050
2939 2946 2953 2959 2965 2970 2975 2980 2985 2991 2998 3004 3008 3012 3017 3022 3025 3028 3031 3035 3037 3040 3041 3041 3042 3043 3043 3044 3045 3047 3049 3050 3051 3052 3052 3052 3052 3051 3050 3050 3049 3047 3045
2931 2937 2944 2951 2957 2962 2967 2973 2978 2983 2989 2994 3001 3005 3011 3015 3019 3022 3026 3028 3031 3033 3034 3035 3035 3036 3037 3038 3040 3041 3044 3045 3046 3047 3048 3048 3048 3047 3047 3046 3044 3042 3040
2923 2928 2935 2942 2948 2954 2960 2965 2970 2975 2981 2986 2993 2998 3003 3007 3011 3015 3019 3022 3024 3025 3026 3027 3028 3029 3030 3032 3034 3036 3038 3040 3041 3042 3043 3043 3043 3042 3042 3040 3039 3037 3034
2914 2919 2926 2933 2939 2944 2950 2956 2962 2967 2973 2978 2985 2990 2994 2997 3002 3006 3010 3013 3016 3018 3019 3019 3020 3022 3023 3025 3028 3030 3032 3034 3036 3037 3037 3037 3037 3036 3036 3035 3033 3031 3029